Dauntless Aviation
Greetings, Guest! To participate, [sign up for a free account] or [log in]
Airports South America Argentina
SABE
AEP

Aeroparque Jorge Newbery

Buenos Aires, ARGENTINA

Airport Info
Edit

Location

Latitude / Longitude: 34°33'33"S / 58°24'56"W
  34°33.552'S / 58°24.936'W
  -34.5592 / -58.4156

Nearby radio navigation aids

FDO SAN FERNANDO VOR/DME. 132.7° 10.6nm from FDO to field.
OP AEROPARQUE JORGE NEWBERY NDB. 131.1° 4.3nm from OP to field.

Runway Information

Runway 13 /31

Dimensions: 6890 x 131 ft.
Surface: ASP
 
Runway 13
Runway 31
Latitude: -34.553942 -34.563844
Longitude: -58.425247 -58.407506
Elevation: 18 ft. 18 ft.
Runway true heading: 126.3 306.3
 

Instrument Procedures

STARs (Standard Terminal Arrivals)

  STAR Rwy 13/16 PAGON7C SANANTONIO7C ASADA7C VALOS8C
  STAR Rwy 13/16 SURBO7A SARGO7C KOVUK7C TENIL7C BELGRANO7C
  STAR Rwy 31 SURBO2B SARGO7D KOVUK7D TENIL7D BELGRANO7D VALOS7D ASADA7D
  STAR Rwy 31 PAGON7D SANANTONIO7D

IAPs (Instrument Approach Procedures)

  VOR (DME) ILS (DME) Rwy 13 (From VANAR)
  VOR (DME) ILS (DME) Rwy 13
  LI ILS (DME) Rwy 13
  VOR (DME) LO LI Rwy 13 (From VANAR)
  LI LO LI Rwy 13
  LI Rwy 13 (From QUILMES)
  LI Rwy 31

Departure Procedures

  SID Rwy 13/31
  SID Rwy 13/31 Textual Description
  SID Rwy 13/31 LANDA3B BIVAM3B ATOVO3B
  SID 13/31 LANDA3B BIVAM3B ATOVO3B Textual Description
  SID Rwy 13/31 KUKEN7 SUROBO7 DORVO7 LAPLATA7
  SID Rwy 13/31 KUKEN7 SUROBO7 DORVO7 LAPLATA7 Textual Description
  SID S Rwy 13/31
  SID Rwy 13/31 Textual Description
Satellite photo at:
Airport distance calculator
From:
Weather Reports

METAR

SABE

SABE 191700Z 11004KT 8000 FEW012 22/11 Q1013
SADF
10.6nm W
SADF 191700Z 20006KT 110V250 9000 NSC 22/13 Q1012
SAEZ
16.2nm S
SAEZ 191700Z 20008KT 140V260 9999 FEW030 21/11 Q1013
SUCA
30.3nm NE
SUCA 191700Z 22006KT 9000 FEW013 20/16 Q1011

TAF

SABE
TAF SABE 191100Z 1912/2012 23005KT 8000 NSC TX19/1918Z TN14/2010Z TEMPO 1913/1915 18010KT SCT010 BKN100 BECMG 1916/1918 18005KT CAVOK BECMG 2006/2008 20010KT
SADF
10.6nm W
TAF SADF 191100Z 1912/2012 18005KT 9999 FEW020 SCT100 TX21/1918Z TN13/2009Z BECMG 2006/2009 16010KT 4000 BR SCT015 BKN060
SAEZ
16.2nm S
TAF SAEZ 191100Z 1912/2012 20002KT 700 FG OVC005 TX21/1918Z TN12/2009Z BECMG 1913/1915 18005KT 9999 NSC BECMG 1922/2002 VRB02KT 5000 -DZ BR BKN010 PROB30 2005/2009 0300 FG OVC003
SUCA
30.3nm NE
SUCA 191100Z 1912/2012 10005KT 5000 BR NSC TX19/1918Z TN11/2010Z BECMG 1912/1914 18010KT 9999 BKN015
Safelog

 

Dauntless Aviation

© 2007-2014 Dauntless Aviation, all rights reserved
Information provided via PilotNav comes from a variety of official and unofficial data sources. As errors are possible, do not use PilotNav for primary flight planning purposes. Verify any information that you receive via PilotNav with current and canonical charts and other official documents. The material in this database is subject to database copyrights held by Dauntless Aviation and may not be copied without the express permission of Dauntless Aviation - licenses for use of part of all of this data are available for purchase; enquire via the Dauntless Aviation helpdesk. A number of mechanisms and markers exist in the database to protect against and identify infringement / copyright. Automated queries against this website are stictly prohibited, and all activity is logged and analyzed.